Wind_Speed
10 10 10 10 11 10 11 11 11 12 12 12 13 13 13 13 14 15 16 16 16 16 16 16 16 17 17 17 18 18 18 19 19 19 19 20 20 21
11 11 11 11 12 12 12 12 13 13 13 13 13 13 14 15 15 15 16 17 17 17 17 18 19 19 19 20 20 20 20 21 21 22 22 23 22 23
11 11 11 11 12 12 13 13 14 14 14 14 14 14 15 16 16 16 17 18 19 19 19 20 20 20 21 21 22 22 23 24 24 25 25 25 26 26
11 11 11 11 11 12 13 14 15 15 15 15 15 16 16 17 17 18 19 19 20 21 21 21 21 22 23 24 24 25 26 27 27 28 29 29 29 29
11 11 11 12 13 13 14 15 15 16 16 16 16 17 17 18 19 20 20 21 22 22 22 23 24 25 26 26 27 28 28 29 29 30 30 30 30 31
12 12 13 13 13 14 14 15 16 16 16 17 17 17 18 19 20 20 21 22 23 24 24 25 26 27 28 29 29 30 30 31 32 32 32 32 32 33
13 13 13 13 13 14 14 15 16 17 17 17 18 18 19 21 22 23 23 23 24 25 26 27 27 28 29 30 31 32 32 33 33 34 34 34 35 35
15 15 15 15 15 16 16 17 17 18 18 19 20 20 21 22 23 24 24 24 25 26 27 27 28 28 29 30 31 32 33 34 34 35 35 35 36 36
15 16 16 16 17 18 18 19 19 19 20 22 23 23 24 24 25 26 26 27 27 28 29 29 30 30 31 32 33 33 33 34 34 34 35 36 36 37
16 16 17 18 19 19 20 21 21 21 22 23 23 24 24 25 25 25 27 27 29 30 30 31 32 32 33 34 34 34 34 35 35 36 36 37 38 39
17 18 19 20 20 20 20 21 22 22 24 25 23 24 25 27 27 28 28 30 30 31 32 32 33 33 34 35 34 35 36 37 37 38 39 40 41 41
19 19 20 21 21 21 21 22 22 23 24 25 25 25 26 28 28 29 30 31 32 32 33 33 34 35 36 36 36 37 38 38 39 40 41 42 42 42
20 20 21 22 22 22 22 23 23 23 24 25 25 26 27 28 29 30 31 32 32 32 33 34 35 36 37 37 37 38 39 40 41 41 42 41 42 42
20 21 21 22 23 24 24 24 25 26 26 26 26 27 29 30 31 31 32 33 33 33 34 35 35 36 37 37 38 38 39 40 41 41 41 42 43 44
21 21 22 23 24 25 25 26 26 27 27 28 28 29 30 31 32 32 33 33 33 34 35 36 36 36 37 37 38 38 39 39 40 41 42 43 43 44
21 22 23 24 25 26 26 27 27 28 29 30 30 31 31 31 32 32 33 34 34 35 36 36 36 35 36 37 37 38 38 40 41 42 43 44 44 44
22 23 24 25 25 26 27 27 27 28 29 30 31 31 32 32 33 34 35 35 35 36 36 37 37 37 37 37 38 38 40 41 42 43 43 43 43 43
23 24 24 25 26 27 28 28 29 30 30 30 31 32 32 33 34 35 34 34 34 35 36 36 37 38 39 39 39 40 41 42 42 42 43 42 42 42
24 24 24 25 26 27 29 30 30 30 31 31 32 33 34 34 35 35 35 36 36 37 38 38 38 38 39 39 40 41 41 42 42 42 42 42 42 42
24 25 25 26 27 28 29 30 31 32 32 33 34 35 35 36 36 36 37 37 38 38 39 40 39 39 40 40 40 40 42 42 42 41 42 42 42 43
25 25 26 27 28 29 31 31 32 33 34 35 36 36 37 37 37 37 38 39 40 40 40 40 40 41 42 42 41 41 42 42 42 42 42 42 42 42
26 27 27 28 29 30 31 32 33 34 34 36 36 37 37 37 37 38 39 40 40 40 40 41 42 42 42 42 42 42 41 41 42 42 42 42 42 42
28 28 29 30 31 31 32 33 34 35 36 36 36 36 37 37 38 39 40 40 40 40 40 40 41 41 41 41 41 41 41 40 40 40 40 41 40 40
Wind_Direction
285 282 280 278 274 267 266 264 267 267 269 274 278 277 276 277 275 275 273 273 273 274 273 272 273 272 273 274 273 272 273 274 274 274 273 270 267 266
287 284 283 277 271 268 267 267 268 271 270 276 279 278 280 279 278 277 276 274 273 273 274 275 274 274 274 274 275 274 273 273 274 275 274 273 270 270
285 283 282 280 276 272 270 269 271 272 272 276 280 279 280 281 278 278 278 278 276 275 275 276 277 276 276 276 276 276 276 275 274 274 274 272 271 271
283 280 281 280 281 277 274 275 274 274 275 276 279 281 282 284 284 283 281 278 279 278 277 276 275 277 278 277 276 276 277 276 275 275 274 272 272 271
285 283 283 283 281 281 281 280 277 277 277 278 281 283 283 282 284 285 282 281 280 279 278 277 277 278 279 278 278 278 277 277 277 276 274 272 272 272
285 284 284 284 283 284 285 285 283 283 283 284 284 284 286 285 286 287 284 283 282 281 279 279 279 279 281 280 279 279 279 278 277 276 275 275 273 272
286 288 288 286 285 286 288 288 288 285 284 284 286 285 285 285 284 284 282 282 281 284 283 282 281 280 279 281 281 280 280 279 278 276 275 274 274 273
285 286 288 286 286 286 286 287 287 287 288 287 285 285 285 286 285 284 284 284 283 284 283 282 282 283 281 281 282 281 281 279 278 277 275 275 274 274
286 286 287 287 287 287 286 286 287 287 288 288 283 283 284 284 284 285 285 285 284 286 285 283 285 284 283 283 283 283 282 282 279 278 277 277 277 277
287 286 286 287 289 288 286 286 286 288 289 289 286 285 286 287 286 285 285 287 286 285 286 285 284 283 283 283 284 283 282 281 281 279 279 279 279 279
287 289 289 289 288 288 288 288 287 288 289 288 288 289 288 288 287 287 287 287 287 287 286 286 284 283 283 283 283 283 282 281 281 280 280 280 280 279
288 290 291 291 289 289 289 290 290 290 291 290 289 291 291 291 290 289 288 288 288 287 286 286 284 283 283 283 283 282 281 281 282 281 281 281 280 280
289 290 291 292 290 290 290 292 293 295 295 293 292 293 295 294 292 292 292 291 289 288 287 286 286 285 284 284 284 283 283 283 282 282 281 280 280 281
291 291 292 292 291 291 291 292 295 297 298 298 297 296 296 295 293 292 292 292 290 289 289 289 288 286 285 284 284 284 284 285 284 283 283 283 282 281
293 294 294 294 293 294 294 294 295 297 299 298 298 298 297 295 294 294 293 292 291 291 292 292 291 289 288 287 286 286 285 284 285 285 285 284 283 283
295 295 296 296 294 294 295 295 295 296 297 297 297 297 297 297 296 296 295 293 293 293 293 293 292 291 291 290 290 289 288 287 286 285 286 286 285 284
296 296 296 296 295 295 295 295 296 296 297 297 298 298 299 298 298 298 297 297 295 294 294 294 293 293 293 292 292 291 289 289 288 288 287 287 286 286
295 296 296 296 296 296 296 296 297 297 297 298 299 300 300 299 300 300 301 300 299 297 295 295 294 295 295 295 295 294 293 292 291 290 289 289 288 287
295 296 297 297 297 297 297 298 299 299 299 299 300 300 301 301 302 302 301 301 300 298 297 296 295 295 295 296 297 296 295 294 294 293 293 291 291 290
296 297 297 298 299 299 300 301 301 302 301 301 302 302 301 301 301 301 301 301 301 299 298 297 296 296 297 297 298 297 297 297 297 296 296 294 293 293
298 299 300 301 302 302 302 302 302 302 302 302 302 302 301 300 300 300 301 302 301 300 299 298 297 298 299 299 299 298 298 297 297 297 296 296 295 294
300 301 300 301 301 301 301 302 303 304 304 305 305 304 303 301 301 301 302 302 302 301 301 300 299 299 299 299 298 298 298 298 298 298 298 298 298 297
300 300 300 301 302 302 303 304 305 304 305 306 306 305 304 303 303 302 303 303 303 303 303 303 302 300 299 299 299 300 300 299 298 298 298 299 299 300
Height
5880 5879 5878 5877 5877 5876 5876 5876 5876 5875 5875 5874 5873 5872 5871 5870 5869 5868 5868 5867 5866 5865 5865 5864 5863 5862 5861 5860 5859 5858 5857 5856 5855 5854 5853 5852 5851 5851
5877 5876 5875 5874 5873 5873 5873 5872 5872 5872 5871 5871 5870 5869 5867 5866 5865 5864 5863 5863 5862 5860 5860 5859 5858 5857 5856 5855 5853 5852 5851 5850 5849 5848 5847 5846 5846 5845
5874 5873 5871 5871 5870 5869 5869 5869 5868 5868 5867 5866 5865 5864 5863 5862 5861 5860 5859 5858 5856 5856 5855 5854 5852 5851 5850 5849 5848 5846 5845 5844 5843 5842 5841 5840 5839 5838
5870 5869 5868 5867 5866 5866 5865 5864 5864 5863 5863 5862 5861 5860 5859 5857 5856 5855 5854 5852 5851 5850 5849 5848 5846 5845 5844 5842 5841 5840 5838 5837 5835 5834 5833 5832 5831 5830
5867 5865 5865 5864 5863 5862 5861 5860 5859 5859 5858 5857 5856 5855 5853 5852 5851 5849 5848 5847 5845 5844 5843 5841 5840 5838 5837 5835 5833 5832 5830 5829 5827 5826 5824 5823 5822 5821
5863 5862 5861 5860 5859 5858 5857 5856 5855 5854 5853 5852 5851 5850 5848 5846 5845 5844 5842 5840 5839 5837 5836 5834 5832 5831 5829 5827 5825 5824 5822 5820 5818 5817 5815 5814 5813 5812
5859 5858 5857 5856 5855 5854 5853 5851 5850 5849 5848 5847 5845 5844 5842 5841 5839 5837 5836 5834 5832 5830 5829 5827 5824 5822 5820 5818 5816 5814 5812 5810 5808 5807 5805 5804 5803 5802
5855 5854 5853 5852 5850 5849 5848 5846 5845 5844 5842 5841 5840 5838 5836 5834 5833 5831 5829 5827 5825 5824 5820 5818 5816 5814 5811 5809 5807 5805 5803 5801 5799 5797 5795 5794 5792 5791
5851 5850 5848 5847 5845 5844 5842 5841 5839 5837 5836 5835 5833 5831 5829 5827 5825 5823 5821 5819 5817 5815 5812 5809 5807 5805 5802 5800 5798 5796 5793 5791 5788 5786 5784 5783 5781 5780
5847 5845 5844 5842 5840 5838 5836 5835 5833 5831 5829 5827 5826 5824 5822 5820 5817 5815 5813 5811 5808 5805 5803 5800 5798 5795 5793 5790 5788 5785 5783 5781 5778 5776 5774 5772 5770 5768
5842 5840 5838 5837 5835 5832 5830 5828 5827 5824 5822 5819 5818 5816 5814 5812 5809 5807 5805 5802 5799 5796 5793 5791 5788 5786 5783 5780 5777 5774 5772 5770 5767 5765 5763 5760 5758 5756
5836 5834 5833 5831 5828 5826 5824 5822 5820 5818 5815 5813 5810 5808 5806 5804 5801 5798 5796 5793 5790 5787 5784 5781 5778 5776 5773 5770 5767 5764 5761 5758 5756 5754 5751 5748 5746 5744
5830 5829 5827 5824 5822 5820 5818 5816 5813 5811 5808 5806 5803 5801 5798 5795 5792 5789 5786 5783 5780 5777 5775 5771 5768 5765 5762 5759 5756 5752 5750 5747 5744 5741 5739 5736 5733 5730
5825 5823 5821 5819 5816 5814 5811 5809 5807 5804 5801 5798 5795 5793 5790 5787 5783 5780 5777 5773 5770 5767 5764 5761 5758 5754 5751 5748 5745 5741 5738 5735 5732 5729 5726 5723 5720 5717
5818 5816 5814 5812 5810 5807 5805 5802 5800 5797 5794 5790 5787 5784 5781 5778 5774 5771 5767 5763 5760 5757 5753 5750 5747 5743 5740 5737 5733 5730 5727 5723 5720 5717 5713 5710 5707 5703
5812 5810 5808 5805 5803 5800 5797 5795 5792 5789 5786 5782 5779 5776 5773 5769 5765 5762 5758 5754 5751 5747 5743 5740 5736 5733 5729 5726 5722 5718 5715 5711 5708 5704 5700 5697 5693 5689
5806 5804 5801 5798 5796 5793 5790 5787 5784 5781 5778 5774 5771 5767 5764 5760 5756 5753 5749 5745 5742 5738 5734 5730 5726 5722 5718 5715 5711 5707 5702 5698 5694 5690 5687 5683 5679 5675
5799 5797 5794 5791 5788 5785 5782 5779 5776 5773 5769 5766 5763 5759 5755 5751 5748 5744 5740 5736 5732 5728 5724 5720 5716 5712 5707 5703 5699 5695 5691 5686 5682 5677 5673 5669 5666 5662
5793 5790 5787 5784 5781 5778 5775 5771 5768 5765 5761 5757 5754 5750 5746 5742 5738 5734 5730 5726 5721 5717 5713 5709 5705 5701 5696 5692 5688 5683 5678 5674 5669 5665 5660 5656 5653 5649
5786 5783 5780 5777 5774 5770 5767 5763 5760 5756 5753 5749 5745 5741 5737 5733 5729 5725 5720 5716 5711 5707 5702 5698 5693 5689 5685 5681 5676 5671 5666 5661 5657 5652 5648 5643 5639 5635
5778 5775 5773 5769 5766 5763 5759 5755 5752 5748 5744 5740 5736 5731 5727 5723 5718 5714 5710 5705 5700 5696 5691 5687 5682 5677 5672 5668 5664 5659 5654 5648 5644 5639 5635 5630 5626 5622
5771 5768 5765 5762 5758 5755 5751 5747 5743 5739 5735 5730 5726 5721 5716 5712 5708 5703 5699 5694 5689 5685 5680 5675 5670 5665 5661 5656 5651 5647 5642 5637 5631 5626 5621 5617 5612 5608
5764 5760 5757 5753 5750 5746 5742 5738 5734 5730 5725 5720 5716 5711 5706 5702 5697 5693 5688 5683 5678 5673 5668 5663 5658 5653 5648 5644 5639 5634 5630 5625 5620 5615 5610 5605 5601 5596